星链-35638(STARLINK-35638)

导读 | 豆包AI

STARLINK-35638是美国SpaceX公司于2025年10月25日发射的星链低轨通信卫星,属于全球规模最大卫星互联网星座的组成部分。该卫星采用平板设计,搭载Ku/Ka波段通信载荷与氪工质霍尔推进器,具备自主避撞能力,寿命末期可自主离轨再入大气层销毁,旨在为全球偏远欠发达地区提供高速低延迟宽带互联网接入服务,助力消除数字鸿沟。

基本信息
目录编号:
66169
目录名称:
STARLINK-35638
国际标识:
2025-240Z
轨道中心:
EARTH
卫星名称:
星链-35638
卫星全名:
星链-35638(STARLINK-35638)
卫星状态:
在轨 (已飞行212 天)
发射日期:
2025-10-25 UTC
国别 :
美国 (US)
星等 :
--
轨道信息
数据来源 国际轨道数据
星历时间: 2026-05-25T10:07:22+0800
8小时前
查看轨道信息
半长轴: 6853.346km
偏心率: 0.0001035
轨道倾角: 53.158°
近地点辐角 78.848°
升交点赤经 68.061°
平近点角 281.264°
近地点: 474.499km
远地点: 475.919km
周期: 94.105分钟
每日圈数: 15.302021
详细信息
固有亮度:
5
最大亮度:
2.5
卫星平台:
Starlink V1.0
覆盖范围:
全球
运营商:
太空探索技术公司
运营商所在国:
美国
制造商(研发单位):
太空探索技术公司
制造商所在国:
美国
使用方式:
暂无
卫星简介
Starlink 计划是 SpaceX 推出的全球卫星互联网项目,通过发射低轨道卫星,为全球尤其是偏远地区提供高速、低延迟的互联网服务。自 2019 年起,Starlink 已部署数千颗卫星,旨在缩小全球数字鸿沟,推动互联网普及。该项目还为军事、航空等行业提供通信支持,带来广泛经济效益。
2D轨道图
3D轨道图
轨道高度分析图
轨道倾角分析图
轨道综合分析图
查看轨道综合分析图